• In Uzbekistan
  • List of Countries
  • For 7 days
  • Water Temperature
  • Satellite Maps
  • Weather Map
  • Weather Widgets
  • user-avatar
    Login

    Hourly Weather Santiago del Estero

    Today, 27 June, Tuesday

    Time Temperature Precipitation Wind Pressure Humidity
    00:00 +22°C° 0 mm 7 mps 738 mmHg 62%
    01:00 +21°C° 0 mm 7 mps 738 mmHg 66%
    02:00 +21°C° 0 mm 7 mps 738 mmHg 70%
    03:00 +20°C° 0 mm 8 mps 738 mmHg 69%
    04:00 +20°C° 0 mm 8 mps 739 mmHg 69%
    05:00 +18°C° 0 mm 9 mps 739 mmHg 68%
    06:00 +18°C° 0 mm 9 mps 740 mmHg 66%
    07:00 +18°C° 0 mm 9 mps 741 mmHg 64%
    08:00 +18°C° 0 mm 9 mps 742 mmHg 63%
    09:00 +18°C° 0 mm 9 mps 743 mmHg 59%
    10:00 +18°C° 0 mm 8 mps 743 mmHg 56%
    11:00 +18°C° 0 mm 8 mps 744 mmHg 53%
    12:00 +20°C° 0 mm 8 mps 744 mmHg 50%
    13:00 +21°C° 0 mm 8 mps 744 mmHg 46%
    14:00 +22°C° 0 mm 8 mps 744 mmHg 43%
    15:00 +22°C° 0 mm 7 mps 744 mmHg 43%
    16:00 +22°C° 0 mm 7 mps 745 mmHg 43%
    17:00 +21°C° 0 mm 7 mps 745 mmHg 43%
    18:00 +20°C° 0 mm 6 mps 746 mmHg 45%
    19:00 +20°C° 0 mm 6 mps 746 mmHg 47%
    20:00 +19°C° 0 mm 6 mps 747 mmHg 49%
    21:00 +17°C° 0 mm 6 mps 747 mmHg 51%
    22:00 +17°C° 0 mm 6 mps 748 mmHg 53%
    23:00 +16°C° 0 mm 6 mps 748 mmHg 55%

    Tomorrow, 28 June, Wednesday

    Time Temperature Precipitation Wind Pressure Humidity
    00:00 +16°C° 0 mm 5 mps 748 mmHg 58%
    01:00 +15°C° 0 mm 5 mps 748 mmHg 61%
    02:00 +14°C° 0 mm 4 mps 748 mmHg 63%
    03:00 +14°C° 0 mm 4 mps 748 mmHg 65%
    04:00 +13°C° 0 mm 4 mps 747 mmHg 67%
    05:00 +13°C° 0 mm 3 mps 747 mmHg 69%
    06:00 +12°C° 0 mm 3 mps 748 mmHg 68%
    07:00 +12°C° 0 mm 3 mps 748 mmHg 67%
    08:00 +12°C° 0 mm 3 mps 748 mmHg 67%
    09:00 +13°C° 0 mm 3 mps 749 mmHg 63%
    10:00 +14°C° 0 mm 3 mps 749 mmHg 59%
    11:00 +16°C° 0 mm 3 mps 749 mmHg 55%
    12:00 +17°C° 0 mm 3 mps 748 mmHg 53%
    13:00 +17°C° 0 mm 3 mps 747 mmHg 51%
    14:00 +18°C° 0 mm 4 mps 746 mmHg 49%
    15:00 +17°C° 0 mm 4 mps 746 mmHg 50%
    16:00 +17°C° 0 mm 4 mps 746 mmHg 52%
    17:00 +15°C° 0 mm 4 mps 746 mmHg 53%
    18:00 +16°C° 0 mm 3 mps 746 mmHg 55%
    19:00 +14°C° 0 mm 3 mps 746 mmHg 57%
    20:00 +15°C° 0 mm 2 mps 746 mmHg 59%
    21:00 +14°C° 0 mm 2 mps 747 mmHg 61%
    22:00 +14°C° 0 mm 1 mps 747 mmHg 63%
    23:00 +14°C° 0 mm 1 mps 747 mmHg 65%

    Day after tomorrow, 29 June, Thursday

    Time Temperature Precipitation Wind Pressure Humidity
    00:00 +13°C° 0 mm 1 mps 746 mmHg 69%
    01:00 +12°C° 0 mm 1 mps 746 mmHg 73%
    02:00 +12°C° 0 mm 1 mps 745 mmHg 76%
    03:00 +12°C° 0 mm 2 mps 745 mmHg 74%
    04:00 +13°C° 0 mm 2 mps 745 mmHg 72%
    05:00 +13°C° 0 mm 2 mps 745 mmHg 70%
    06:00 +13°C° 0 mm 2 mps 745 mmHg 69%
    07:00 +13°C° 0 mm 2 mps 746 mmHg 69%
    08:00 +13°C° 0 mm 2 mps 747 mmHg 68%
    09:00 +15°C° 0 mm 2 mps 747 mmHg 63%
    10:00 +16°C° 0 mm 2 mps 747 mmHg 57%
    11:00 +18°C° 0 mm 2 mps 748 mmHg 52%
    12:00 +19°C° 0 mm 2 mps 747 mmHg 49%
    13:00 +21°C° 0 mm 1 mps 746 mmHg 47%
    14:00 +23°C° 0 mm 1 mps 745 mmHg 44%
    15:00 +22°C° 0 mm 1 mps 745 mmHg 46%
    16:00 +21°C° 0 mm 1 mps 745 mmHg 49%
    17:00 +20°C° 0 mm 2 mps 745 mmHg 51%
    18:00 +19°C° 0 mm 1 mps 745 mmHg 58%
    19:00 +16°C° 0 mm 1 mps 746 mmHg 65%
    20:00 +14°C° 0 mm 1 mps 746 mmHg 71%
    21:00 +14°C° 0 mm 1 mps 746 mmHg 75%
    22:00 +13°C° 0 mm 2 mps 747 mmHg 79%
    23:00 +13°C° 0 mm 2 mps 747 mmHg 83%

    30 June, Friday

    Time Temperature Precipitation Wind Pressure Humidity
    00:00 +13°C° 0 mm 2 mps 746 mmHg 85%
    01:00 +12°C° 0 mm 2 mps 746 mmHg 88%
    02:00 +12°C° 0 mm 1 mps 746 mmHg 90%
    03:00 +11°C° 0 mm 1 mps 746 mmHg 91%
    04:00 +11°C° 0 mm 1 mps 746 mmHg 91%
    05:00 +11°C° 0 mm 1 mps 746 mmHg 92%
    06:00 +11°C° 0 mm 1 mps 747 mmHg 91%
    07:00 +12°C° 0 mm 1 mps 747 mmHg 91%
    08:00 +12°C° 0 mm 1 mps 748 mmHg 90%
    09:00 +15°C° 0 mm 1 mps 749 mmHg 79%
    10:00 +18°C° 0 mm 1 mps 749 mmHg 68%
    11:00 +19°C° 0 mm 2 mps 750 mmHg 57%
    12:00 +20°C° 0 mm 2 mps 749 mmHg 52%
    13:00 +21°C° 0 mm 2 mps 749 mmHg 47%
    14:00 +24°C° 0 mm 2 mps 748 mmHg 42%
    15:00 +23°C° 0 mm 2 mps 748 mmHg 44%
    16:00 +21°C° 0 mm 2 mps 748 mmHg 45%
    17:00 +20°C° 0 mm 2 mps 749 mmHg 47%
    18:00 +19°C° 0 mm 2 mps 749 mmHg 52%
    19:00 +17°C° 0 mm 2 mps 750 mmHg 56%
    20:00 +15°C° 0 mm 2 mps 750 mmHg 61%
    21:00 +15°C° 0 mm 2 mps 751 mmHg 65%
    22:00 +14°C° 0 mm 2 mps 751 mmHg 69%
    23:00 +13°C° 0 mm 2 mps 751 mmHg 73%

    1 July, Saturday

    Time Temperature Precipitation Wind Pressure Humidity
    00:00 +13°C° 0 mm 2 mps 751 mmHg 78%
    01:00 +12°C° 0 mm 2 mps 751 mmHg 82%
    02:00 +12°C° 0 mm 1 mps 751 mmHg 87%
    03:00 +12°C° 0 mm 1 mps 751 mmHg 89%
    04:00 +11°C° 0 mm 1 mps 751 mmHg 91%
    05:00 +11°C° 0 mm 1 mps 751 mmHg 93%
    06:00 +11°C° 0 mm 1 mps 751 mmHg 93%
    07:00 +11°C° 0 mm 1 mps 752 mmHg 92%
    08:00 +12°C° 0 mm 1 mps 752 mmHg 92%
    09:00 +14°C° 0 mm 2 mps 753 mmHg 80%
    10:00 +16°C° 0 mm 2 mps 753 mmHg 68%
    11:00 +18°C° 0 mm 2 mps 753 mmHg 57%
    12:00 +19°C° 0 mm 2 mps 752 mmHg 50%
    13:00 +21°C° 0 mm 3 mps 751 mmHg 44%
    14:00 +22°C° 0 mm 3 mps 750 mmHg 38%
    15:00 +21°C° 0 mm 3 mps 750 mmHg 40%
    16:00 +21°C° 0 mm 3 mps 750 mmHg 41%
    17:00 +20°C° 0 mm 3 mps 750 mmHg 43%
    18:00 +19°C° 0 mm 3 mps 750 mmHg 49%
    19:00 +17°C° 0 mm 3 mps 751 mmHg 55%
    20:00 +14°C° 0 mm 3 mps 751 mmHg 60%
    21:00 +14°C° 0 mm 3 mps 751 mmHg 65%
    22:00 +13°C° 0 mm 3 mps 751 mmHg 70%
    23:00 +12°C° 0 mm 3 mps 751 mmHg 75%

    2 July, Sunday

    Time Temperature Precipitation Wind Pressure Humidity
    00:00 +12°C° 0 mm 3 mps 751 mmHg 78%
    01:00 +12°C° 0 mm 3 mps 751 mmHg 81%
    02:00 +11°C° 0 mm 3 mps 750 mmHg 84%
    03:00 +11°C° 0 mm 3 mps 750 mmHg 85%
    04:00 +11°C° 0 mm 3 mps 750 mmHg 86%
    05:00 +10°C° 0 mm 3 mps 750 mmHg 87%
    06:00 +11°C° 0 mm 3 mps 750 mmHg 85%
    07:00 +11°C° 0 mm 3 mps 751 mmHg 83%
    08:00 +11°C° 0 mm 3 mps 751 mmHg 82%
    09:00 +14°C° 0 mm 4 mps 751 mmHg 72%
    10:00 +16°C° 0 mm 5 mps 751 mmHg 63%
    11:00 +20°C° 0 mm 6 mps 751 mmHg 54%
    12:00 +21°C° 0 mm 6 mps 751 mmHg 51%
    13:00 +23°C° 0 mm 6 mps 750 mmHg 48%
    14:00 +24°C° 0 mm 6 mps 749 mmHg 45%
    15:00 +24°C° 0 mm 6 mps 749 mmHg 47%
    16:00 +23°C° 0 mm 5 mps 749 mmHg 49%
    17:00 +23°C° 0 mm 5 mps 749 mmHg 51%
    18:00 +21°C° 0 mm 5 mps 749 mmHg 55%
    19:00 +20°C° 0 mm 5 mps 749 mmHg 60%
    20:00 +19°C° 0 mm 5 mps 749 mmHg 64%
    21:00 +17°C° 0 mm 5 mps 750 mmHg 65%
    22:00 +17°C° 0 mm 5 mps 750 mmHg 67%
    23:00 +17°C° 0 mm 5 mps 750 mmHg 68%
    Show more